Find Starlink 1267

NORAD ID: 45384 Int'l Des: 2020-019 Owner: SPXS Country: US Constellation: starlink operational
LEOCIRCULAR

实时位置

正在加载3D地球...

关于 Starlink 1267

正在加载描述...

即将过境

Passes for default location (London). Set your location on the main map for personalized predictions.

高度历史

Loading altitude history...

两行轨道根数

1 45384U 20019AA 26123.64334127 .00110536 00000-0 13342-2 0 9991
2 45384 53.0463 221.3941 0006198 348.1488 11.9378 15.59912931338838
Epoch: May 3, 2026 • Age: 14 hours

当前状态

高度 392.6 km
速度 7.68 km/s
星下点 49.46°N, 26.35°W
发射日期 Mar 18, 2020
运行时间 6.1 years
类型 internet

技术详情

分类 Payload
质量 260.00 kg
干质量 248.00 kg
总质量 260.00 kg
长度 0.20 m
直径 2.80 m
跨度 9.00 m
形状 Box + pan
制造商 SPXS
平台类型 Starlink
阶段状态 In Orbit
所有者/国家 SPXS/US

Most Searched